DECAYED

STARLINK-1970, 47571 (Decayed)

Orbit data source: Space-Track

STARLINK-1970, 47571 was a payload satellite owned by SpaceX/Seattle (US) in LEO that was launched on Thu, 04 Feb 2021 UTC via an FALCON 9 launch vehicle from the Air Force Eastern Test Range (AFETR). Payload-class satellites include a variety of spacecraft equipped with specific instruments for various scientific and technological missions. These include communications satellites like Starlink; space stations such as the ISS; scientific satellites like the Hubble; Earth observation satellites from companies like Planet Labs, Umbra, and HawkEye 360; GPS; miniature CubeSats for education and research; and military/defense satellites.

Not visible in the next 10 days
Identifier
47571, 2021-009Z
Orbit
Decayed
Country
Flag of USUS
Related business
Manufacturer
SpaceX/Seattle
Mission
Decayed Commercial Communications
Bus & Motor
STARLINK, Unknown motor
Mass
260 kg wet, ~248 kg dry
Launch date (UTC)
2021-02-04 (5 years ago)
Launch vehicle
FALCON 9
Launch site
Air Force Eastern Test Range (AFETR)
Object type
Payload
Rocket body
Debris
Shape & HBR
Box + 1 Pan, 10.1 m
Radar Cross Section
13.562 m², Large (>1 m²)

Expand to show TLE details & history
Last TLE update: 1 year ago

TLE from 1 year ago
0 STARLINK-1970
1 47571U 21009Z   25115.01441909  .06626750  12200-4  10862-2 0  9998
2 47571  53.0329 305.5362 0010305 291.1815 207.8408 16.32529484234303
Epoch: 2025-04-25T00:20Z
TLE epoch observation values (Epoch: 2025-04-25T00:20:45.809Z)
Latitude
31.74082°
Longitude
-120.5079°
Altitude
193.708 km
Speed
7.791 km/s
True Right ascension
06h 31m 50s
True Declination
31° 34' 26"
Sunlit
Object was in daylight at epoch
Visualization orbit readout
Latitude
Unknown
Longitude
Unknown
Altitude
Unknown
Speed
Unknown
Apparent Right ascension
Unknown
Apparent Declination
Unknown
Sunlit
N/A
Visualization observer readout
Local Sidereal Time
21:24:52
Azimuth
Unknown
Elevation
Unknown
Doppler factor
Unknown
Orbital elements
Apogee altitude
192.804 km
Perigee altitude
179.275 km
Semi-major axis
6,564.177 km
Eccentricity
0.00103
Inclination
53.0329°
RAAN
305.5362°
Arg. of periapsis
291.1815°
True anomaly
207.78571°
Mean anomaly
207.8408°
Eccentric anomaly
207.81325°
Mean motion
4.08106 °/min
Orbital period
88.21 mins
BSTAR
0.0010862
Loading maneuver chart data...
Computing Atmospheric mass density...

Documentation

Showing up to 5 results
|